TITAN 3C TRANSTAGE DEB, 39296

Orbit data source: Space-Track

TITAN 3C TRANSTAGE DEB, 39296 is space debris in GEO originally from a launch on Thu, 26 Sep 1968 UTC launched from the Air Force Eastern Test Range (AFETR). Debris objects in space refer to the collection of defunct objects orbiting the Earth. Examples of debris include non-operational satellites, rocket bodies, and fragments generated from explosions, collisions, or faulty payload assembly.

Not visible in the next 10 days
Identifier
39296, 1968-081AG
Orbit
GEO
Country
Flag of USUS
Related business
Manufacturer
Unknown
Mission
Spacecraft
Bus & Motor
Unknown
Mass
Unknown
Launch date (UTC)
1968-09-26 (57 years ago)
Launch vehicle
Unknown
Launch site
Air Force Eastern Test Range (AFETR)
Object type
Payload
Rocket body
Debris
Shape & HBR
Unknown
Radar Cross Section
RCS unknown

Expand to show TLE details & history
Last TLE update: 22 hours ago

TLE from 22 hours ago
0 TITAN 3C TRANSTAGE DEB
1 39296U 68081AG  25258.89276402 -.00000442  00000-0  00000-0 0  9993
2 39296   1.2980  10.7426 0156243 319.6045  99.1832  1.00583741 48935
Epoch: 2025-09-15T21:25Z
TLE epoch observation values (Epoch: 2025-09-15T21:25:34.811Z)
Latitude
1.11253°
Longitude
114.8049°
Altitude
35,812.44 km
Speed
3.07 km/s
True Right ascension
04h 45m 09s
True Declination
1° 06' 41"
Sunlit
Object was in daylight at epoch
Visualization orbit readout
Latitude
Unknown
Longitude
Unknown
Altitude
Unknown
Speed
Unknown
Apparent Right ascension
Unknown
Apparent Declination
Unknown
Sunlit
N/A
Visualization observer readout
Local Sidereal Time
12:24:41
Azimuth
Unknown
Elevation
Unknown
Doppler factor
Unknown
Orbital elements
Apogee altitude
36,357.889 km
Perigee altitude
35,042.992 km
Semi-major axis
42,078.578 km
Eccentricity
0.01562
Inclination
1.298°
RAAN
10.7426°
Arg. of periapsis
319.6045°
True anomaly
100.9449°
Mean anomaly
99.1832°
Eccentric anomaly
100.06463°
Mean motion
0.25145 °/min
Orbital period
1,431.7 mins
BSTAR
0
Loading maneuver chart data...
Computing Atmospheric mass density...

Documentation

Showing up to 5 results
|